Forside
METAR-TAF:

METAR-TAF

Lufthavne :

Flying Cloud Airport

Minneapolis / Eden Prairie, Minnesota, USA

Breddekreds: 44-49-56N, længdekreds: 093-28-13W, højde: 287 m

Aktuelle vejr

Denne rapport blev lavet for 1 time og 11 minutter siden, kl. 21:53 UTC
Vind 17 kt fra nordvest med vindstød på up til 25 kt
Temperatur -4°C
Fugtighed 49%
Tryk 1010 hPa
Sigt: 16.1 km
skyfri

METAR: KFCM 212153Z 31017G25KT 10SM CLR M04/M13 A2983 RMK AO2 PK WND 30033/2058 SLP113 T10391128

Tid: 17:04 (23:04 UTC)


TAF: fraværende

Vejrobservationer og prognoser fra mere end 4000 lufthavne (METAR og TAF).

De gule og røde prikker repræsenterer de meteorologiske stationer.

Flyt musen over at se navnet på stationen.

Så klik over at se vejr observationer og prognoser.

At skifte det kort: Klik på de grønne knapper med et sort kors for at zoome ind; på den grønne knap med en bindestreg for at zoome ud; eller på de grønne pile for tilstødende kort.


METAR-TAF: